TimeMST,TemperatureF,Dew PointF,Humidity,Sea Level PressureIn,VisibilityMPH,Wind Direction,Wind SpeedMPH,Gust SpeedMPH,PrecipitationIn,Events,Conditions,WindDirDegrees,DateUTC
12:53 AM,39.9,37.9,93,30.12,4.0,WSW,5.8,-,0.04,Rain,Light Rain,250,2012-11-25 07:53:00
1:12 AM,39.2,37.4,93,30.08,5.0,WSW,4.6,-,0.00,Rain,Light Rain,250,2012-11-25 08:12:00
1:53 AM,39.9,37.9,93,30.12,7.0,WSW,4.6,-,0.01,Rain,Light Rain,250,2012-11-25 08:53:00
2:53 AM,41.0,37.9,89,30.12,10.0,West,5.8,-,0.00,,Overcast,260,2012-11-25 09:53:00
3:53 AM,39.9,37.9,93,30.14,4.0,North,3.5,-,N/A,,Overcast,360,2012-11-25 10:53:00
4:53 AM,41.0,37.0,86,30.14,10.0,Calm,Calm,-,N/A,,Overcast,0,2012-11-25 11:53:00
5:53 AM,39.0,34.0,82,30.15,10.0,WNW,10.4,-,N/A,,Mostly Cloudy,300,2012-11-25 12:53:00
6:53 AM,39.9,30.9,70,30.18,10.0,NW,6.9,-,N/A,,Partly Cloudy,320,2012-11-25 13:53:00
7:53 AM,39.0,30.0,70,30.18,10.0,Calm,Calm,-,N/A,,Mostly Cloudy,0,2012-11-25 14:53:00
8:53 AM,39.9,30.9,70,30.22,10.0,WNW,9.2,-,N/A,,Overcast,300,2012-11-25 15:53:00
9:53 AM,42.1,33.1,70,30.23,10.0,WNW,9.2,-,N/A,,Scattered Clouds,290,2012-11-25 16:53:00
10:53 AM,46.0,32.0,58,30.22,10.0,NW,13.8,-,N/A,,Partly Cloudy,320,2012-11-25 17:53:00
11:53 AM,46.9,30.0,52,30.22,10.0,NW,16.1,-,N/A,,Clear,320,2012-11-25 18:53:00
12:53 PM,48.0,28.0,46,30.21,10.0,NW,12.7,-,N/A,,Partly Cloudy,310,2012-11-25 19:53:00
1:53 PM,48.9,27.0,43,30.20,10.0,NNW,10.4,-,N/A,,Clear,330,2012-11-25 20:53:00
2:53 PM,48.9,26.1,41,30.20,10.0,NW,6.9,-,N/A,,Clear,310,2012-11-25 21:53:00
3:53 PM,48.0,27.0,44,30.22,10.0,NW,10.4,-,N/A,,Clear,310,2012-11-25 22:53:00
4:53 PM,44.1,27.0,51,30.23,10.0,NW,10.4,-,N/A,,Clear,310,2012-11-25 23:53:00
5:53 PM,39.0,26.1,60,30.25,10.0,WNW,9.2,-,N/A,,Clear,300,2012-11-26 00:53:00
6:53 PM,37.0,25.0,62,30.26,10.0,NW,8.1,-,N/A,,Partly Cloudy,320,2012-11-26 01:53:00
7:53 PM,36.0,25.0,64,30.28,10.0,NNW,6.9,-,N/A,,Clear,330,2012-11-26 02:53:00
8:53 PM,34.0,25.0,70,30.29,10.0,NW,3.5,-,N/A,,Clear,310,2012-11-26 03:53:00
9:53 PM,36.0,25.0,64,30.30,10.0,West,3.5,-,N/A,,Clear,270,2012-11-26 04:53:00
10:53 PM,32.0,26.1,79,30.30,7.0,Calm,Calm,-,N/A,,Clear,0,2012-11-26 05:53:00
11:53 PM,30.0,25.0,82,30.30,10.0,WSW,5.8,-,N/A,,Clear,250,2012-11-26 06:53:00